Radiation Dose measured at exhaust stack monitor of Fukushima Daiichi Nuclear Power Station
Date,Time,Unit 5 6 shared exhaust cylinders,Wind Direction,Wind Velocity(m/s)
2021/04/28,00:00,3.9,south-southwest,4.8
2021/04/28,00:10,3.8,south-southwest,4.0
2021/04/28,00:20,3.9,south-southwest,4.3
2021/04/28,00:30,4.1,south-southwest,4.8
2021/04/28,00:40,3.9,south-southwest,4.9
2021/04/28,00:50,3.9,south-southwest,3.8
2021/04/28,01:00,4.0,south-southwest,3.3
2021/04/28,01:10,3.9,southwest,3.3
2021/04/28,01:20,4.1,south-southwest,3.9
2021/04/28,01:30,3.8,south-southwest,4.4
2021/04/28,01:40,3.8,south-southwest,3.9
2021/04/28,01:50,3.9,south-southwest,4.2
2021/04/28,02:00,4.0,southwest,3.5
2021/04/28,02:10,4.0,southwest,3.6
2021/04/28,02:20,3.9,southwest,2.3
2021/04/28,02:30,4.1,southwest,1.5
2021/04/28,02:40,3.9,southwest,1.2
2021/04/28,02:50,3.9,south,1.4
2021/04/28,03:00,4.0,south,2.3
2021/04/28,03:10,3.9,south,2.6
2021/04/28,03:20,4.0,south-southwest,2.6
2021/04/28,03:30,3.9,south-southwest,2.6
2021/04/28,03:40,3.9,southwest,2.0
2021/04/28,03:50,3.9,southwest,3.7
2021/04/28,04:00,3.9,southwest,4.4
2021/04/28,04:10,4.1,south-southwest,3.5
2021/04/28,04:20,4.0,south-southwest,3.5
2021/04/28,04:30,4.0,south-southwest,2.8
2021/04/28,04:40,3.9,south-southwest,2.6
2021/04/28,04:50,3.9,south-southwest,2.3
2021/04/28,05:00,4.0,southwest,2.6
2021/04/28,05:10,4.1,southwest,2.6
2021/04/28,05:20,3.9,southwest,1.7
2021/04/28,05:30,3.9,southwest,1.2
2021/04/28,05:40,3.8,-,CALM
2021/04/28,05:50,3.9,west-southwest,0.8
2021/04/28,06:00,4.0,west-southwest,0.6
2021/04/28,06:10,4.0,south,1.9
2021/04/28,06:20,4.1,south-southwest,2.3
2021/04/28,06:30,3.8,south-southwest,2.6
2021/04/28,06:40,4.0,south,2.3
2021/04/28,06:50,4.0,south,1.7
2021/04/28,07:00,3.8,south-southwest,1.7
2021/04/28,07:10,3.9,southwest,1.1
2021/04/28,07:20,3.9,west-southwest,1.2
2021/04/28,07:30,4.0,-,CALM
2021/04/28,07:40,3.9,south-southwest,0.6
2021/04/28,07:50,4.0,south-southeast,1.1
2021/04/28,08:00,3.8,south-southeast,0.6
2021/04/28,08:10,4.2,-,CALM
2021/04/28,08:20,3.8,northeast,0.8
2021/04/28,08:30,4.0,east-northeast,1.2
2021/04/28,08:40,3.9,east-northeast,2.0
2021/04/28,08:50,3.9,east-northeast,2.3
2021/04/28,09:00,3.7,east-southeast,2.8
2021/04/28,09:10,3.9,south-southeast,3.2
2021/04/28,09:20,3.8,south-southeast,3.0
2021/04/28,09:30,3.8,south,3.1
2021/04/28,09:40,3.8,south-southeast,3.1
2021/04/28,09:50,3.8,south,3.4
2021/04/28,10:00,3.8,south-southeast,3.5
2021/04/28,10:10,3.9,south,2.2
2021/04/28,10:20,3.9,south,2.2
2021/04/28,10:30,3.8,south,1.7
2021/04/28,10:40,4.0,south-southwest,1.7
2021/04/28,10:50,3.9,southeast,1.9
2021/04/28,11:00,3.9,east-southeast,1.5
2021/04/28,11:10,3.9,southeast,0.9
2021/04/28,11:20,4.0,south,2.2
2021/04/28,11:30,3.9,south-southeast,3.4
2021/04/28,11:40,3.9,south-southeast,2.6
2021/04/28,11:50,3.9,southeast,2.6
2021/04/28,12:00,3.7,south-southeast,2.8
2021/04/28,12:10,3.9,south-southeast,2.6
2021/04/28,12:20,3.8,south-southeast,3.5
2021/04/28,12:30,3.8,south-southeast,3.5
2021/04/28,12:40,4.0,south-southeast,4.0
2021/04/28,12:50,3.8,south-southeast,4.0
2021/04/28,13:00,4.0,south-southeast,3.6
2021/04/28,13:10,3.8,south,3.5
2021/04/28,13:20,3.9,south,3.3
2021/04/28,13:30,3.8,south,2.2
2021/04/28,13:40,4.0,south,1.9
2021/04/28,13:50,3.8,south,1.9
2021/04/28,14:00,4.0,south-southeast,2.2
2021/04/28,14:10,4.0,south-southeast,1.7
2021/04/28,14:20,4.1,southeast,2.5
2021/04/28,14:30,3.8,south-southeast,3.7
2021/04/28,14:40,3.9,south-southeast,4.4
2021/04/28,14:50,4.0,south,4.8
2021/04/28,15:00,4.0,south,5.3
2021/04/28,15:10,3.9,south-southeast,5.2
2021/04/28,15:20,3.9,south,5.1
2021/04/28,15:30,4.0,south,5.5
2021/04/28,15:40,3.9,south,6.4
2021/04/28,15:50,3.9,south-southeast,8.5
2021/04/28,16:00,4.1,south-southeast,11.6
2021/04/28,16:10,3.9,south-southeast,9.7
2021/04/28,16:20,3.9,south-southeast,10.2
2021/04/28,16:30,3.8,south-southeast,9.7
2021/04/28,16:40,3.9,south,7.8
2021/04/28,16:50,3.9,south,8.3
2021/04/28,17:00,4.1,south,6.0
2021/04/28,17:10,4.0,south,6.6
2021/04/28,17:20,4.0,south,7.0
2021/04/28,17:30,3.9,south,8.1
2021/04/28,17:40,4.0,south,7.8
2021/04/28,17:50,4.0,south,9.4
2021/04/28,18:00,3.9,south,8.0
2021/04/28,18:10,3.9,south,7.8
2021/04/28,18:20,4.1,south,7.4
2021/04/28,18:30,3.9,south,8.2
2021/04/28,18:40,3.9,south,6.6
2021/04/28,18:50,4.0,south,6.6
2021/04/28,19:00,3.8,south,6.8
2021/04/28,19:10,4.1,south,6.4
2021/04/28,19:20,3.8,south,6.2
2021/04/28,19:30,3.8,south,6.5
2021/04/28,19:40,3.8,south,5.7
2021/04/28,19:50,4.0,south,6.6
2021/04/28,20:00,3.9,south,6.3
2021/04/28,20:10,3.9,south,5.4
2021/04/28,20:20,3.8,south,5.8
2021/04/28,20:30,4.0,south,6.2
2021/04/28,20:40,3.9,south-southwest,6.7
2021/04/28,20:50,3.9,south,7.1
2021/04/28,21:00,3.8,south,5.9
2021/04/28,21:10,4.0,south-southwest,5.3
2021/04/28,21:20,3.9,south-southwest,5.1
2021/04/28,21:30,3.7,south-southwest,4.7
2021/04/28,21:40,3.9,south,4.7
2021/04/28,21:50,3.9,south,4.4
2021/04/28,22:00,4.0,south,4.5
2021/04/28,22:10,4.0,south,4.6
2021/04/28,22:20,3.9,south-southwest,4.1
2021/04/28,22:30,3.8,south-southwest,3.2
2021/04/28,22:40,3.7,south-southwest,3.2
2021/04/28,22:50,4.0,south-southwest,3.8
2021/04/28,23:00,3.9,south-southwest,3.2
2021/04/28,23:10,3.9,south-southwest,2.6
2021/04/28,23:20,3.9,southwest,3.3
2021/04/28,23:30,3.9,southwest,3.5
2021/04/28,23:40,4.1,south-southwest,3.2
2021/04/28,23:50,3.8,south-southwest,3.4
